Location: Florence
(33.9745°N, 118.2481°W)
Time: 19:42:46
(UTC+00:00)

Genesis I - Pass Details

Date: 23 March 2023
Orbit: 467 x 504 km, 64.5° (Epoch: 06 June)

Event Time Altitude Azimuth Distance (km) Brightness Sun altitude
Exits shadow 13:19:58 - 249° (WSW) 1,804 5.3 -7.6°
Reaches altitude 10° 13:20:13 10° 251° (WSW) 1,724 5.2 -7.6°
Maximum altitude 13:23:22 23° 306° (NW) 1,109 4.5 -6.9°
Drops below altitude 10° 13:26:32 10° 1° (N) 1,737 6.0 -6.3°
Sets 13:29:02 0° 16° (NNE) 2,626 7.1 -5.7°
